Tucson Davis Monthan, AZ

1:20 PM MST on February 17, 2018 (GMT -0700)
Davis-Monthan Air Force Base

Weather History for KDMA - August, 2013

Change the Weather History Date:

Wednesday, August 7, 2013

  Actual Average Record
Temperature  
Mean Temperature 80 °F -  
Max Temperature 92 °F 98 °F 106 °F (1980)
Min Temperature 68 °F 73 °F 66 °F (1963)
Cooling Degree Days 15    
Growing Degree Days 30 (Base 50)    
Moisture  
Dew Point 58 °F    
Average Humidity 50    
Maximum Humidity 86    
Minimum Humidity 26    
Precipitation  
Precipitation 0.00 in - - ()
Sea Level Pressure  
Sea Level Pressure 29.91 in    
Wind  
Wind Speed 6 mph (SSE)    
Max Wind Speed 13 mph    
Max Gust Speed 21 mph    
Visibility 10 miles    
Events      
Averages and records for this station are not official NWS values.
T = Trace of Precipitation, MM = Missing Value Source: NWS Daily Summary

Daily Weather History Graph

Daily Weather History Graph

Search for Another Location

Airport or City:

Trip Planner

Search our weather history database for the weather conditions in past years. The results will help you decide how hot, cold, wet, or windy it might be!

Date:

Astronomy

Aug. 07, 2013 Rise Set
Actual Time 5:42 AM MST 7:15 PM MST
Civil Twilight 5:16 AM MST 7:41 PM MST
Nautical Twilight 4:44 AM MST 8:12 PM MST
Astronomical Twilight 4:11 AM MST 8:45 PM MST
Moon 6:28 AM MST (8/7) 7:32 PM MST (8/7)
Length of Visible Light 14h 25m
Length of Day
13h 32m
New Moon, 1% of the Moon is Illuminated
Aug 7
New Moon
Aug 14
First Quarter
Aug 20
Full
Aug 28
Last Quarter
Sep 5
New

Hourly Weather History & Observations

Time (MST) Temp. Heat Index Dew Point Humidity Pressure Visibility Wind Dir Wind Speed Gust Speed Precip Events Conditions
12:58 AM 70.9 °F - 65.3 °F 82% 29.94 in 10.0 mi SE 4.6 mph - N/A   Clear
1:58 AM 70.9 °F - 64.9 °F 81% 29.93 in 10.0 mi ESE 5.8 mph - N/A   Clear
2:58 AM 69.3 °F - 64.2 °F 84% 29.94 in 10.0 mi SSE 5.8 mph - N/A   Clear
3:58 AM 68.4 °F - 63.9 °F 85% 29.93 in 10.0 mi SSE 4.6 mph - N/A   Clear
4:58 AM 68.0 °F - 63.7 °F 86% 29.94 in 10.0 mi ESE 3.5 mph - N/A   Partly Cloudy
5:58 AM 69.1 °F - 64.4 °F 85% 29.97 in 10.0 mi SSE 2.3 mph - N/A   Mostly Cloudy
6:58 AM 69.8 °F - 64.0 °F 82% 29.96 in 10.0 mi SSE 4.6 mph - N/A   Scattered Clouds
7:58 AM 73.2 °F - 63.5 °F 71% 29.98 in 10.0 mi SE 3.5 mph - N/A   Clear
8:58 AM 78.4 °F - 63.1 °F 59% 29.98 in 10.0 mi Variable 4.6 mph - N/A   Clear
9:58 AM 81.9 °F 82.3 °F 60.6 °F 48% 29.96 in 10.0 mi South 5.8 mph - N/A   Clear
10:58 AM 84.7 °F 84.0 °F 58.1 °F 40% 29.95 in 10.0 mi Variable 4.6 mph - N/A   Clear
11:58 AM 88.0 °F 86.3 °F 55.2 °F 33% 29.94 in 10.0 mi NW 12.7 mph - N/A   Clear
12:58 PM 89.6 °F 87.7 °F 54.9 °F 31% 29.92 in 10.0 mi North 12.7 mph 18.4 mph N/A   Clear
1:58 PM 91.8 °F 89.8 °F 55.0 °F 29% 29.90 in 10.0 mi Variable 5.8 mph - N/A   Clear
2:06 PM 91.4 °F 89.1 °F 53.6 °F 28% 30.03 in 10.0 mi NW 11.5 mph 19.6 mph N/A   Clear
2:58 PM 92.5 °F 90.4 °F 54.5 °F 28% 29.88 in 10.0 mi West 9.2 mph - N/A   Clear
3:58 PM 92.1 °F 89.7 °F 53.2 °F 27% 29.87 in 10.0 mi North 9.2 mph 20.7 mph N/A   Partly Cloudy
4:58 PM 92.8 °F - 52.9 °F 26% 29.85 in 10.0 mi NW 10.4 mph - N/A   Scattered Clouds
5:58 PM 92.1 °F - 52.7 °F 26% 29.85 in 10.0 mi WNW 4.6 mph - N/A   Clear
6:58 PM 90.9 °F - 51.1 °F 26% 29.85 in 10.0 mi North 8.1 mph - N/A   Clear
7:58 PM 87.6 °F - 50.4 °F 28% 29.86 in 10.0 mi NNW 3.5 mph - N/A   Clear
8:58 PM 84.6 °F 83.1 °F 54.3 °F 35% 29.86 in 10.0 mi Calm Calm - N/A   Clear
9:58 PM 80.2 °F 80.2 °F 54.7 °F 41% 29.86 in 10.0 mi South 5.8 mph - N/A   Clear
10:58 PM 79.2 °F - 53.4 °F 41% 29.86 in 10.0 mi SSE 5.8 mph - N/A   Clear
11:58 PM 76.5 °F - 54.7 °F 47% 29.86 in 10.0 mi ESE 6.9 mph - N/A   Clear